Time,TemperatureF,DewpointF,PressureIn,WindDirection,WindDirectionDegrees,WindSpeedMPH,WindSpeedGustMPH,Humidity,HourlyPrecipIn,Conditions,Clouds,dailyrainin,SolarRadiationWatts/m^2,SoftwareType,DateUTC
2013-01-28 00:21:00,27.0,25.0,-100.00,SE,135,3.0,9.0,93,0.00,,,0.01,1.000000,,2013-01-28 05:21:00,
2013-01-28 00:32:00,27.0,25.0,-100.00,SE,135,3.0,9.0,93,0.00,,,0.01,1.000000,,2013-01-28 05:32:00,
2013-01-28 00:42:00,27.0,25.0,-100.00,SE,135,3.0,9.0,93,0.00,,,0.01,1.000000,,2013-01-28 05:42:00,
2013-01-28 00:52:00,27.0,25.0,-100.00,SE,135,3.0,9.0,93,0.00,,,0.01,1.000000,,2013-01-28 05:52:00,
2013-01-28 01:22:00,27.0,26.0,-100.00,East,100,3.0,7.0,94,0.00,,,0.01,1.000000,,2013-01-28 06:22:00,
2013-01-28 01:32:00,27.0,26.0,-100.00,East,100,3.0,7.0,94,0.00,,,0.01,1.000000,,2013-01-28 06:32:00,
2013-01-28 01:42:00,27.0,26.0,-100.00,East,100,3.0,7.0,94,0.00,,,0.01,1.000000,,2013-01-28 06:42:00,
2013-01-28 01:52:00,27.0,26.0,-100.00,East,100,3.0,7.0,94,0.00,,,0.01,1.000000,,2013-01-28 06:52:00,
2013-01-28 02:21:00,28.0,27.0,-100.00,East,95,3.0,7.0,94,0.00,,,0.01,1.000000,,2013-01-28 07:21:00,
2013-01-28 02:32:00,28.0,27.0,-100.00,East,95,3.0,7.0,94,0.00,,,0.01,1.000000,,2013-01-28 07:32:00,
2013-01-28 02:42:00,28.0,27.0,-100.00,East,95,3.0,7.0,94,0.00,,,0.01,1.000000,,2013-01-28 07:42:00,
2013-01-28 02:51:00,28.0,27.0,-100.00,East,95,3.0,7.0,94,0.00,,,0.01,1.000000,,2013-01-28 07:51:00,
2013-01-28 03:21:00,28.0,27.0,-100.00,East,88,2.0,6.0,94,0.00,,,-99.99,1.000000,,2013-01-28 08:21:00,
2013-01-28 03:32:00,28.0,27.0,-100.00,East,88,2.0,6.0,94,0.00,,,-99.99,1.000000,,2013-01-28 08:32:00,
2013-01-28 03:42:00,28.0,27.0,-100.00,East,88,2.0,6.0,94,0.00,,,-99.99,1.000000,,2013-01-28 08:42:00,
2013-01-28 03:52:00,28.0,27.0,-100.00,East,88,2.0,6.0,94,0.00,,,-99.99,1.000000,,2013-01-28 08:52:00,
2013-01-28 04:22:00,28.0,27.0,-100.00,ENE,62,2.0,5.0,95,0.00,,,0.01,1.000000,,2013-01-28 09:22:00,
2013-01-28 04:32:00,28.0,27.0,-100.00,ENE,62,2.0,5.0,95,0.00,,,0.01,1.000000,,2013-01-28 09:32:00,
2013-01-28 04:42:00,28.0,27.0,-100.00,ENE,62,2.0,5.0,95,0.00,,,0.01,1.000000,,2013-01-28 09:42:00,
2013-01-28 04:51:00,28.0,27.0,-100.00,ENE,62,2.0,5.0,95,0.00,,,0.01,1.000000,,2013-01-28 09:51:00,
2013-01-28 06:22:00,27.0,26.0,-100.00,NE,45,2.0,4.0,95,-99.99,,,0.01,1.000000,,2013-01-28 11:22:00,
2013-01-28 06:32:00,27.0,26.0,-100.00,NE,45,2.0,4.0,95,-99.99,,,0.01,1.000000,,2013-01-28 11:32:00,
2013-01-28 06:42:00,27.0,26.0,-100.00,NE,45,2.0,4.0,95,-99.99,,,0.01,1.000000,,2013-01-28 11:42:00,
2013-01-28 06:52:00,27.0,26.0,-100.00,NE,45,2.0,4.0,95,-99.99,,,0.01,1.000000,,2013-01-28 11:52:00,
2013-01-28 07:23:00,27.0,26.0,-100.00,NE,43,2.0,5.0,95,0.00,,,0.01,1.000000,,2013-01-28 12:23:00,
2013-01-28 07:33:00,27.0,26.0,-100.00,NE,43,2.0,5.0,95,0.00,,,0.01,1.000000,,2013-01-28 12:33:00,
2013-01-28 07:42:00,27.0,26.0,-100.00,NE,43,2.0,5.0,95,0.00,,,0.01,1.000000,,2013-01-28 12:42:00,
2013-01-28 07:52:00,27.0,26.0,-100.00,NE,43,2.0,5.0,95,0.00,,,0.01,1.000000,,2013-01-28 12:52:00,
2013-01-28 08:23:00,27.0,26.0,-100.00,NNE,23,2.0,4.0,95,0.00,,,0.01,1.000000,,2013-01-28 13:23:00,
2013-01-28 08:33:00,27.0,26.0,-100.00,NNE,23,2.0,4.0,95,0.00,,,0.01,1.000000,,2013-01-28 13:33:00,
2013-01-28 08:42:00,27.0,26.0,-100.00,NNE,23,2.0,4.0,95,0.00,,,0.01,1.000000,,2013-01-28 13:42:00,
2013-01-28 08:52:00,27.0,26.0,-100.00,NNE,23,2.0,4.0,95,0.00,,,0.01,1.000000,,2013-01-28 13:52:00,
2013-01-28 09:22:00,27.0,26.0,-100.00,NNE,28,1.0,4.0,96,0.00,,,0.01,1.000000,,2013-01-28 14:22:00,
2013-01-28 09:33:00,27.0,26.0,-100.00,NNE,28,1.0,4.0,96,0.00,,,0.01,1.000000,,2013-01-28 14:33:00,
2013-01-28 09:43:00,27.0,26.0,-100.00,NNE,28,1.0,4.0,96,0.00,,,0.01,1.000000,,2013-01-28 14:43:00,
2013-01-28 09:52:00,27.0,26.0,-100.00,NNE,28,1.0,4.0,96,0.00,,,0.01,1.000000,,2013-01-28 14:52:00,
2013-01-28 10:23:00,29.0,28.0,-100.00,NNW,335,2.0,4.0,95,0.00,,,0.01,8.000000,,2013-01-28 15:23:00,
2013-01-28 10:33:00,29.0,28.0,-100.00,NNW,335,2.0,4.0,95,0.00,,,0.01,8.000000,,2013-01-28 15:33:00,
2013-01-28 10:43:00,29.0,28.0,-100.00,NNW,335,2.0,4.0,95,0.00,,,0.01,8.000000,,2013-01-28 15:43:00,
2013-01-28 10:52:00,29.0,28.0,-100.00,NNW,335,2.0,4.0,95,0.00,,,0.01,8.000000,,2013-01-28 15:52:00,
2013-01-28 11:22:00,31.0,29.0,-100.00,NNW,335,2.0,5.0,92,0.00,,,0.01,17.000000,,2013-01-28 16:22:00,
2013-01-28 11:32:00,31.0,29.0,-100.00,NNW,335,2.0,5.0,92,0.00,,,0.01,17.000000,,2013-01-28 16:32:00,
2013-01-28 11:43:00,31.0,29.0,-100.00,NNW,335,2.0,5.0,92,0.00,,,0.01,17.000000,,2013-01-28 16:43:00,
2013-01-28 11:52:00,31.0,29.0,-100.00,NNW,335,2.0,5.0,92,0.00,,,0.01,17.000000,,2013-01-28 16:52:00,
2013-01-28 12:23:00,34.0,30.0,-100.00,NNW,342,2.0,4.0,85,0.00,,,0.01,55.000000,,2013-01-28 17:23:00,
2013-01-28 12:32:00,34.0,30.0,-100.00,NNW,342,2.0,4.0,85,0.00,,,0.01,55.000000,,2013-01-28 17:32:00,
2013-01-28 12:42:00,34.0,30.0,-100.00,NNW,342,2.0,4.0,85,0.00,,,0.01,55.000000,,2013-01-28 17:42:00,
2013-01-28 12:52:00,34.0,30.0,-100.00,NNW,342,2.0,4.0,85,0.00,,,0.01,55.000000,,2013-01-28 17:52:00,
2013-01-28 13:23:00,36.0,30.0,-100.00,SW,231,2.0,5.0,79,0.00,,,0.01,204.000000,,2013-01-28 18:23:00,
2013-01-28 13:33:00,36.0,30.0,-100.00,SW,231,2.0,5.0,79,0.00,,,0.01,204.000000,,2013-01-28 18:33:00,
2013-01-28 13:42:00,36.0,30.0,-100.00,SW,231,2.0,5.0,79,0.00,,,0.01,204.000000,,2013-01-28 18:42:00,
2013-01-28 13:52:00,36.0,30.0,-100.00,SW,231,2.0,5.0,79,0.00,,,0.01,204.000000,,2013-01-28 18:52:00,
2013-01-28 14:22:00,35.0,30.0,-100.00,WSW,253,2.0,5.0,81,0.00,,,0.01,143.000000,,2013-01-28 19:22:00,
2013-01-28 14:33:00,35.0,30.0,-100.00,WSW,253,2.0,5.0,81,0.00,,,0.01,143.000000,,2013-01-28 19:33:00,
2013-01-28 14:42:00,35.0,30.0,-100.00,WSW,253,2.0,5.0,81,0.00,,,0.01,143.000000,,2013-01-28 19:42:00,
2013-01-28 14:52:00,35.0,30.0,-100.00,WSW,253,2.0,5.0,81,0.00,,,0.01,143.000000,,2013-01-28 19:52:00,
2013-01-28 15:22:00,32.0,29.0,-100.00,West,267,3.0,7.0,88,0.00,,,0.01,88.000000,,2013-01-28 20:22:00,
2013-01-28 15:33:00,32.0,29.0,-100.00,West,267,3.0,7.0,88,0.00,,,0.01,88.000000,,2013-01-28 20:33:00,
2013-01-28 15:42:00,32.0,29.0,-100.00,West,267,3.0,7.0,88,0.00,,,0.01,88.000000,,2013-01-28 20:42:00,
2013-01-28 15:52:00,32.0,29.0,-100.00,West,267,3.0,7.0,88,0.00,,,0.01,88.000000,,2013-01-28 20:52:00,
2013-01-28 16:22:00,33.0,29.0,-100.00,South,190,2.0,4.0,85,0.00,,,0.00,88.000000,,2013-01-28 21:22:00,
2013-01-28 16:33:00,33.0,29.0,-100.00,South,190,2.0,4.0,85,0.00,,,0.00,88.000000,,2013-01-28 21:33:00,
2013-01-28 16:43:00,33.0,29.0,-100.00,South,190,2.0,4.0,85,0.00,,,0.00,88.000000,,2013-01-28 21:43:00,
2013-01-28 16:52:00,33.0,29.0,-100.00,South,190,2.0,4.0,85,0.00,,,0.00,88.000000,,2013-01-28 21:52:00,
2013-01-28 17:23:00,32.0,29.0,-100.00,SSE,161,2.0,6.0,87,0.00,,,0.00,54.000000,,2013-01-28 22:23:00,
2013-01-28 17:32:00,32.0,29.0,-100.00,SSE,161,2.0,6.0,87,0.00,,,0.00,54.000000,,2013-01-28 22:32:00,
2013-01-28 17:42:00,32.0,29.0,-100.00,SSE,161,2.0,6.0,87,0.00,,,0.00,54.000000,,2013-01-28 22:42:00,
2013-01-28 17:52:00,32.0,29.0,-100.00,SSE,161,2.0,6.0,87,0.00,,,0.00,54.000000,,2013-01-28 22:52:00,
2013-01-28 18:22:00,31.0,28.0,-100.00,East,86,1.0,5.0,89,0.00,,,0.00,18.000000,,2013-01-28 23:22:00,
2013-01-28 18:32:00,31.0,28.0,-100.00,East,86,1.0,5.0,89,0.00,,,0.00,18.000000,,2013-01-28 23:32:00,
2013-01-28 18:42:00,31.0,28.0,-100.00,East,86,1.0,5.0,89,0.00,,,0.00,18.000000,,2013-01-28 23:42:00,
2013-01-28 18:52:00,31.0,28.0,-100.00,East,86,1.0,5.0,89,0.00,,,0.00,18.000000,,2013-01-28 23:52:00,
2013-01-28 19:22:00,30.0,28.0,-100.00,SSE,151,2.0,4.0,93,0.00,,,0.00,1.000000,,2013-01-29 00:22:00,
2013-01-28 19:32:00,30.0,28.0,-100.00,SSE,151,2.0,4.0,93,0.00,,,0.00,1.000000,,2013-01-29 00:32:00,
2013-01-28 19:42:00,30.0,28.0,-100.00,SSE,151,2.0,4.0,93,0.00,,,0.00,1.000000,,2013-01-29 00:42:00,
2013-01-28 19:52:00,30.0,28.0,-100.00,SSE,151,2.0,4.0,93,0.00,,,0.00,1.000000,,2013-01-29 00:52:00,
2013-01-28 20:23:00,30.0,28.0,-100.00,SE,138,3.0,7.0,92,0.00,,,0.00,1.000000,,2013-01-29 01:23:00,
2013-01-28 20:32:00,30.0,28.0,-100.00,SE,138,3.0,7.0,92,0.00,,,0.00,1.000000,,2013-01-29 01:32:00,
2013-01-28 20:42:00,30.0,28.0,-100.00,SE,138,3.0,7.0,92,0.00,,,0.00,1.000000,,2013-01-29 01:42:00,
2013-01-28 20:52:00,30.0,28.0,-100.00,SE,138,3.0,7.0,92,0.00,,,0.00,1.000000,,2013-01-29 01:52:00,
2013-01-28 21:22:00,30.0,28.0,-100.00,SE,143,3.0,7.0,92,0.00,,,0.00,1.000000,,2013-01-29 02:22:00,
2013-01-28 21:33:00,30.0,28.0,-100.00,SE,143,3.0,7.0,92,0.00,,,0.00,1.000000,,2013-01-29 02:33:00,
2013-01-28 21:42:00,30.0,28.0,-100.00,SE,143,3.0,7.0,92,0.00,,,0.00,1.000000,,2013-01-29 02:42:00,
2013-01-28 21:52:00,30.0,28.0,-100.00,SE,143,3.0,7.0,92,0.00,,,0.00,1.000000,,2013-01-29 02:52:00,
2013-01-28 22:22:00,30.0,28.0,-100.00,SSE,149,5.0,12.0,91,0.00,,,0.00,1.000000,,2013-01-29 03:22:00,
2013-01-28 22:32:00,30.0,28.0,-100.00,SSE,149,5.0,12.0,91,0.00,,,0.00,1.000000,,2013-01-29 03:32:00,
2013-01-28 22:42:00,30.0,28.0,-100.00,SSE,149,5.0,12.0,91,0.00,,,0.00,1.000000,,2013-01-29 03:42:00,
2013-01-28 22:52:00,30.0,28.0,-100.00,SSE,149,5.0,12.0,91,0.00,,,0.00,1.000000,,2013-01-29 03:52:00,
2013-01-28 23:22:00,30.0,28.0,-100.00,SSE,148,4.0,11.0,91,0.00,,,0.00,1.000000,,2013-01-29 04:22:00,
2013-01-28 23:32:00,30.0,28.0,-100.00,SSE,148,4.0,11.0,91,0.00,,,0.00,1.000000,,2013-01-29 04:32:00,
2013-01-28 23:42:00,30.0,28.0,-100.00,SSE,148,4.0,11.0,91,0.00,,,0.00,1.000000,,2013-01-29 04:42:00,
2013-01-28 23:52:00,30.0,28.0,-100.00,SSE,148,4.0,11.0,91,0.00,,,0.00,1.000000,,2013-01-29 04:52:00,